AKST,Max TemperatureF,Mean TemperatureF,Min TemperatureF,Max Dew PointF,MeanDew PointF,Min DewpointF,Max Humidity, Mean Humidity, Min Humidity, Max Sea Level PressureIn, Mean Sea Level PressureIn, Min Sea Level PressureIn, Max VisibilityMiles, Mean VisibilityMiles, Min VisibilityMiles, Max Wind SpeedMPH, Mean Wind SpeedMPH, Max Gust SpeedMPH,PrecipitationIn, CloudCover, Events, WindDirDegrees
2013-2-1,41,33,25,37,33,24,100,98,76,29.96,29.74,29.65,10,5,1,12,2,,0.13,7,Rain,340
2013-2-2,37,35,33,37,34,33,100,100,93,29.65,29.52,29.31,10,4,1,5,0,,0.25,8,Rain,335
2013-2-3,37,35,33,36,35,33,100,99,93,29.53,29.34,29.25,10,6,1,9,1,,0.20,8,Rain,182
2013-2-4,35,34,32,34,33,32,100,99,93,29.69,29.64,29.55,10,5,0,5,1,,0.36,7,Fog-Rain-Snow,2
2013-2-5,39,34,30,32,29,26,100,88,60,29.67,29.56,29.46,10,7,1,18,4,28,0.25,3,,13
2013-2-6,35,32,27,29,26,21,93,83,61,29.61,29.48,29.44,10,5,0,21,10,29,0.14,6,Fog-Snow,13
2013-2-7,35,28,21,33,28,20,100,90,80,29.61,29.43,29.28,10,4,0,20,3,24,0.15,8,Fog-Snow,215
2013-2-8,33,27,21,32,28,21,100,94,85,29.79,29.65,29.40,10,8,1,10,1,,0.04,6,Snow,340
2013-2-9,39,36,33,36,34,30,100,93,75,29.73,29.33,29.03,10,6,1,21,5,32,0.96,8,Rain-Snow,176
2013-2-10,39,36,33,37,33,29,100,92,70,29.47,29.32,29.03,10,5,1,22,7,32,0.64,8,Rain-Snow,174
2013-2-11,33,26,19,34,25,16,100,83,56,29.78,29.60,29.48,10,6,1,18,4,25,0.00,5,Snow,359
2013-2-12,34,29,24,31,28,21,100,92,81,29.79,29.74,29.68,10,3,0,7,2,,0.07,8,Fog-Snow,347
2013-2-13,37,35,33,36,32,30,100,92,75,29.85,29.77,29.65,10,5,0,20,5,26,0.49,8,Fog-Snow,146
2013-2-14,39,36,33,34,32,28,100,88,75,29.64,29.35,29.13,10,10,8,15,4,23,0.34,8,Rain-Snow,355
2013-2-15,36,31,26,29,23,13,92,72,54,29.88,29.67,29.49,10,10,5,24,13,37,0.00,4,Snow,352
2013-2-16,28,24,21,27,16,9,100,70,51,30.00,29.91,29.75,10,7,1,15,8,21,0.00,4,Snow,6
2013-2-17,37,32,28,28,24,19,96,79,62,29.74,29.56,29.46,10,4,1,25,10,41,0.13,8,Snow,350
2013-2-18,28,23,18,21,12,6,74,59,46,29.82,29.74,29.65,10,8,2,30,20,43,0.00,3,Snow,1
2013-2-19,36,26,16,29,22,7,100,84,64,29.78,29.41,29.16,10,5,0,16,7,29,0.00,8,Fog-Snow,357
2013-2-20,36,30,25,27,22,18,78,74,67,29.17,29.06,28.98,10,10,9,22,13,31,0.06,7,Snow,4
2013-2-21,35,31,27,25,23,21,81,73,64,29.20,29.12,29.05,10,10,9,25,14,33,0.03,8,Snow,10
2013-2-22,32,26,19,22,14,10,68,56,42,29.42,29.29,29.16,10,10,10,18,13,28,0.00,3,,354
2013-2-23,35,27,19,30,26,12,100,87,68,29.38,29.22,29.12,10,6,1,10,3,18,0.01,8,Snow,10
2013-2-24,33,28,24,34,29,25,100,96,87,29.63,29.48,29.34,10,3,0,6,1,,0.03,7,Fog-Snow,350
2013-2-25,39,32,25,34,29,24,100,91,70,29.65,29.58,29.49,10,10,8,7,2,,0.19,8,Rain-Snow,355
2013-2-26,41,38,35,32,29,27,87,71,57,29.47,29.34,29.24,10,10,9,21,12,28,0.37,8,Rain,341
2013-2-27,37,35,33,34,32,29,100,92,73,29.28,29.23,29.14,10,6,2,17,5,24,0.34,8,Rain-Snow,96
2013-2-28,37,35,33,34,31,26,100,87,67,29.37,29.30,29.25,10,6,1,20,5,28,0.24,8,Snow,31